Simultaneous Nadir Overpasses (SNOs) Predictions

Prediction of SNOs between AQUA and METOP-A Satellite Orbit:

Table of predicted SNOs for the next 14.0 days since TLE Epoch: 1/25/2013
Index Date (AQUA) Time (AQUA) Lat,Lon (AQUA) SZA (AQUA ) Date (METOP-A) Time (METOP-A) Lat,Lon (METOP-A) SZA (METOP-A ) Distance(km) Time Diff (sec)
1 01/26/2013 14:16:45 -73.88, 139.87 87.46 01/26/2013 14:15:52 -73.86, 139.94 87.46 2.73 53
2 01/26/2013 15:06:13 73.90, -52.55 92.57 01/26/2013 15:06:31 73.90, -52.62 92.57 2.09 18
3 01/26/2013 15:55:53 -74.65, 113.34 86.63 01/26/2013 15:56:58 -74.62, 116.53 86.79 93.95 65
4 01/29/2013 09:50:55 -73.86,-153.62 88.21 01/29/2013 09:50:13 -73.88,-153.61 88.18 2.62 42
5 01/29/2013 10:40:24 73.94, 13.82 91.88 01/29/2013 10:40:52 73.92, 13.81 91.85 2.77 28
6 02/01/2013 05:25:05 -73.87, -87.20 88.97 02/01/2013 05:24:35 -73.89, -87.19 88.95 1.31 30
7 02/01/2013 06:14:34 73.96, 80.24 91.12 02/01/2013 06:15:13 73.97, 80.34 91.12 3.02 39
8 02/04/2013 00:09:35 73.24, 172.99 89.54 02/04/2013 00:08:29 73.18, 170.25 89.62 88.02 66
9 02/04/2013 00:59:13 -73.88, -20.74 89.78 02/04/2013 00:58:57 -73.88, -20.81 89.77 2.14 16
10 02/04/2013 01:48:42 73.97, 146.68 90.31 02/04/2013 01:49:35 73.96, 146.71 90.29 2.05 53
11 02/06/2013 19:43:54 73.81,-121.76 89.30 02/06/2013 19:42:41 73.75,-122.04 89.27 10.78 73
12 02/06/2013 20:33:22 -73.92, 45.63 90.59 02/06/2013 20:33:20 -73.91, 45.66 90.60 1.34 2




NCC Satellite Simultaneous Nadir Overpasses (SNOs) Prediction Service
